Wetterdaten: Sonntag, 22.03.2015
Datum Zeit Temp. A. Mod.Schuppen Waschkche Feuchte A. Luftdruck Regen Wind Richtung Richtung Sonnenschein Helligkeit Solar
22.03.2015 00:04 5,5 C 5,2 C 8,3 C 85 % 1021,1 hPa 0,0 l/m 25,8 km/h (4 Bft) N-NO22.5 15 0 min 0 lux 0 W/m
22.03.2015 00:09 5,5 C 5,2 C 8,3 C 85 % 1021,1 hPa 0,0 l/m 21,1 km/h (4 Bft) N-NO67.5 30 0 min 0 lux 0 W/m
22.03.2015 00:13 5,5 C 5,1 C 8,3 C 85 % 1022,1 hPa 0,0 l/m 15,0 km/h (3 Bft) N-NO67.5 25 0 min 0 lux 0 W/m
22.03.2015 00:19 5,4 C 5,1 C 8,3 C 85 % 1022,1 hPa 0,0 l/m 18,6 km/h (3 Bft) N45 10 0 min 0 lux 0 W/m
22.03.2015 00:24 5,4 C 5,2 C 8,3 C 85 % 1022,1 hPa 0,0 l/m 24,6 km/h (4 Bft) NO67.5 40 0 min 0 lux 0 W/m
22.03.2015 00:29 5,4 C 5,2 C 8,3 C 85 % 1022,1 hPa 0,0 l/m 25,5 km/h (4 Bft) N-NO45 25 0 min 0 lux 0 W/m
22.03.2015 00:34 5,4 C 5,1 C 8,3 C 85 % 1022,1 hPa 0,0 l/m 27,8 km/h (5 Bft) N-NO45 25 0 min 0 lux 0 W/m
22.03.2015 00:39 5,4 C 5,1 C 8,3 C 85 % 1022,1 hPa 0,0 l/m 24,0 km/h (4 Bft) N-NO45 30 0 min 0 lux 0 W/m
22.03.2015 00:44 5,4 C 5,1 C 8,3 C 85 % 1022,1 hPa 0,0 l/m 15,4 km/h (3 Bft) N-NO22.5 25 0 min 0 lux 0 W/m
22.03.2015 00:48 5,4 C 5,1 C 8,3 C 85 % 1022,1 hPa 0,0 l/m 23,3 km/h (4 Bft) N-NO45 30 0 min 0 lux 0 W/m
22.03.2015 00:53 5,4 C 5,1 C 8,2 C 85 % 1022,1 hPa 0,0 l/m 24,7 km/h (4 Bft) NO45 35 0 min 0 lux 0 W/m
22.03.2015 00:59 5,4 C 5,0 C 8,3 C 85 % 1022,1 hPa 0,0 l/m 27,5 km/h (5 Bft) N-NO45 30 0 min 0 lux 0 W/m
22.03.2015 01:04 5,4 C 4,9 C 8,3 C 85 % 1022,1 hPa 0,0 l/m 25,2 km/h (4 Bft) NO22.5 40 0 min 0 lux 0 W/m
22.03.2015 01:09 5,3 C 4,9 C 8,2 C 85 % 1022,1 hPa 0,0 l/m 27,6 km/h (5 Bft) N-NO45 30 0 min 0 lux 0 W/m
22.03.2015 01:14 5,4 C 4,9 C 8,2 C 85 % 1022,1 hPa 0,0 l/m 23,9 km/h (4 Bft) NO22.5 40 0 min 0 lux 0 W/m
22.03.2015 01:18 5,3 C 4,8 C 8,2 C 85 % 1022,1 hPa 0,0 l/m 28,8 km/h (5 Bft) NO45 35 0 min 0 lux 0 W/m
22.03.2015 01:24 5,3 C 4,8 C 8,2 C 85 % 1022,1 hPa 0,0 l/m 30,9 km/h (5 Bft) NO45 40 0 min 0 lux 0 W/m
22.03.2015 01:29 5,2 C 4,7 C 8,2 C 84 % 1022,1 hPa 0,0 l/m 30,9 km/h (5 Bft) NO22.5 40 0 min 0 lux 0 W/m
22.03.2015 01:34 5,2 C 4,6 C 8,2 C 84 % 1022,1 hPa 0,0 l/m 21,2 km/h (4 Bft) NO22.5 35 0 min 0 lux 0 W/m
22.03.2015 01:39 5,2 C 4,6 C 8,2 C 83 % 1022,1 hPa 0,0 l/m 28,3 km/h (5 Bft) NO22.5 45 0 min 0 lux 0 W/m
22.03.2015 01:44 5,2 C 4,6 C 8,2 C 83 % 1022,1 hPa 0,0 l/m 26,5 km/h (4 Bft) N-NO67.5 20 0 min 0 lux 0 W/m
22.03.2015 01:49 5,2 C 4,6 C 8,2 C 83 % 1022,1 hPa 0,0 l/m 23,0 km/h (4 Bft) NO45 45 0 min 0 lux 0 W/m
22.03.2015 01:53 5,2 C 4,5 C 8,2 C 84 % 1022,1 hPa 0,0 l/m 22,8 km/h (4 Bft) NO22.5 45 0 min 0 lux 0 W/m
22.03.2015 01:58 5,2 C 4,5 C 8,2 C 83 % 1022,1 hPa 0,0 l/m 29,8 km/h (5 Bft) NO22.5 50 0 min 0 lux 0 W/m
22.03.2015 02:04 5,2 C 4,5 C 8,2 C 83 % 1022,1 hPa 0,0 l/m 26,3 km/h (4 Bft) NO45 55 0 min 0 lux 0 W/m
22.03.2015 02:09 5,2 C 4,6 C 8,2 C 82 % 1022,1 hPa 0,0 l/m 30,7 km/h (5 Bft) NO45 45 0 min 0 lux 0 W/m
22.03.2015 02:14 5,2 C 4,6 C 8,2 C 81 % 1022,1 hPa 0,0 l/m 35,9 km/h (5 Bft) NO45 40 0 min 0 lux 0 W/m
22.03.2015 02:19 5,3 C 4,6 C 8,2 C 81 % 1022,1 hPa 0,0 l/m 35,2 km/h (5 Bft) NO45 40 0 min 0 lux 0 W/m
22.03.2015 02:23 5,3 C 4,6 C 8,2 C 80 % 1023,1 hPa 0,0 l/m 26,5 km/h (4 Bft) NO22.5 40 0 min 0 lux 0 W/m
22.03.2015 02:29 5,2 C 4,6 C 8,2 C 80 % 1023,1 hPa 0,0 l/m 32,2 km/h (5 Bft) NO45 35 0 min 0 lux 0 W/m
22.03.2015 02:34 5,2 C 4,6 C 8,2 C 80 % 1023,1 hPa 0,0 l/m 37,6 km/h (5 Bft) NO45 40 0 min 0 lux 0 W/m
22.03.2015 02:39 5,2 C 4,7 C 8,2 C 80 % 1023,1 hPa 0,0 l/m 22,7 km/h (4 Bft) N-NO45 30 0 min 0 lux 0 W/m
22.03.2015 02:44 5,2 C 4,8 C 8,2 C 80 % 1023,1 hPa 0,0 l/m 30,3 km/h (5 Bft) NO45 35 0 min 0 lux 0 W/m
22.03.2015 02:49 5,2 C 4,8 C 8,2 C 80 % 1023,1 hPa 0,0 l/m 36,9 km/h (5 Bft) NO22.5 40 0 min 0 lux 0 W/m
22.03.2015 02:54 5,2 C 4,8 C 8,2 C 80 % 1023,1 hPa 0,0 l/m 36,8 km/h (5 Bft) N-NO45 30 0 min 0 lux 0 W/m
22.03.2015 02:58 5,2 C 4,8 C 8,2 C 80 % 1023,1 hPa 0,0 l/m 37,3 km/h (5 Bft) NO22.5 40 0 min 0 lux 0 W/m
22.03.2015 03:04 5,2 C 4,8 C 8,2 C 80 % 1023,1 hPa 0,0 l/m 41,1 km/h (6 Bft) NO22.5 35 0 min 0 lux 0 W/m
22.03.2015 03:09 5,2 C 4,7 C 8,2 C 80 % 1023,1 hPa 0,0 l/m 33,2 km/h (5 Bft) NO22.5 35 0 min 0 lux 0 W/m
22.03.2015 03:14 5,2 C 4,7 C 8,2 C 80 % 1023,1 hPa 0,0 l/m 28,8 km/h (5 Bft) NO22.5 55 0 min 0 lux 0 W/m
22.03.2015 03:19 5,1 C 4,7 C 8,2 C 80 % 1023,1 hPa 0,0 l/m 28,6 km/h (5 Bft) NO22.5 35 0 min 0 lux 0 W/m
22.03.2015 03:24 5,1 C 4,6 C 8,2 C 80 % 1023,1 hPa 0,0 l/m 26,8 km/h (4 Bft) NO45 50 0 min 0 lux 0 W/m
22.03.2015 03:28 5,1 C 4,6 C 8,2 C 80 % 1023,1 hPa 0,0 l/m 23,8 km/h (4 Bft) NO45 55 0 min 0 lux 0 W/m
22.03.2015 03:34 5,1 C 4,6 C 8,2 C 80 % 1023,1 hPa 0,0 l/m 32,7 km/h (5 Bft) NO22.5 40 0 min 0 lux 0 W/m
22.03.2015 03:39 5,1 C 4,6 C 8,2 C 80 % 1023,1 hPa 0,0 l/m 35,8 km/h (5 Bft) NO67.5 45 0 min 0 lux 0 W/m
22.03.2015 03:44 5,1 C 4,6 C 8,1 C 79 % 1023,1 hPa 0,0 l/m 35,3 km/h (5 Bft) NO22.5 45 0 min 0 lux 0 W/m
22.03.2015 03:49 5,1 C 4,6 C 8,1 C 80 % 1023,1 hPa 0,0 l/m 23,6 km/h (4 Bft) NO22.5 35 0 min 0 lux 0 W/m
22.03.2015 03:54 4,8 C 4,5 C 8,1 C 80 % 1023,1 hPa 0,0 l/m 32,9 km/h (5 Bft) NO45 35 0 min 0 lux 0 W/m
22.03.2015 03:59 4,6 C 4,3 C 8,1 C 81 % 1023,1 hPa 0,0 l/m 31,2 km/h (5 Bft) N-NO45 25 0 min 0 lux 0 W/m
22.03.2015 04:04 4,6 C 4,3 C 8,1 C 81 % 1023,1 hPa 0,0 l/m 34,5 km/h (5 Bft) NO22.5 45 0 min 0 lux 0 W/m
22.03.2015 04:09 4,6 C 4,3 C 8,1 C 81 % 1023,1 hPa 0,0 l/m 32,2 km/h (5 Bft) NO45 35 0 min 0 lux 0 W/m
22.03.2015 04:14 4,6 C 4,3 C 8,1 C 81 % 1023,1 hPa 0,0 l/m 35,5 km/h (5 Bft) NO45 45 0 min 0 lux 0 W/m
22.03.2015 04:19 4,6 C 4,2 C 8,1 C 79 % 1023,1 hPa 0,0 l/m 38,2 km/h (6 Bft) NO22.5 40 0 min 0 lux 0 W/m
22.03.2015 04:24 4,5 C 4,2 C 8,1 C 79 % 1023,1 hPa 0,0 l/m 37,2 km/h (5 Bft) NO22.5 35 0 min 0 lux 0 W/m
22.03.2015 04:28 4,5 C 4,2 C 8,1 C 79 % 1023,1 hPa 0,0 l/m 31,8 km/h (5 Bft) NO45 40 0 min 0 lux 0 W/m
22.03.2015 04:33 4,5 C 4,1 C 8,1 C 79 % 1023,1 hPa 0,0 l/m 27,6 km/h (5 Bft) NO22.5 40 0 min 0 lux 0 W/m
22.03.2015 04:39 4,4 C 4,0 C 8,1 C 79 % 1023,2 hPa 0,0 l/m 31,1 km/h (5 Bft) NO22.5 35 0 min 0 lux 0 W/m
22.03.2015 04:44 4,4 C 4,0 C 8,1 C 79 % 1023,2 hPa 0,0 l/m 34,9 km/h (5 Bft) N-NO22.5 30 0 min 0 lux 0 W/m
22.03.2015 04:49 4,3 C 3,9 C 8,1 C 79 % 1023,2 hPa 0,0 l/m 32,4 km/h (5 Bft) NO45 45 0 min 0 lux 0 W/m
22.03.2015 04:54 4,2 C 3,9 C 8,1 C 79 % 1023,2 hPa 0,0 l/m 31,9 km/h (5 Bft) NO45 40 0 min 0 lux 0 W/m
22.03.2015 04:59 4,2 C 3,8 C 8,1 C 79 % 1023,2 hPa 0,0 l/m 37,0 km/h (5 Bft) NO45 40 0 min 0 lux 0 W/m
22.03.2015 05:04 4,2 C 3,7 C 8,1 C 79 % 1023,2 hPa 0,0 l/m 26,3 km/h (4 Bft) NO22.5 35 0 min 0 lux 0 W/m
22.03.2015 05:09 4,1 C 3,7 C 8,1 C 78 % 1024,2 hPa 0,0 l/m 32,2 km/h (5 Bft) NO45 40 0 min 0 lux 0 W/m
22.03.2015 05:14 4,1 C 3,7 C 8,1 C 79 % 1024,2 hPa 0,0 l/m 34,4 km/h (5 Bft) NO22.5 45 0 min 0 lux 0 W/m
22.03.2015 05:19 4,1 C 3,6 C 8,1 C 78 % 1024,2 hPa 0,0 l/m 32,2 km/h (5 Bft) NO45 35 0 min 0 lux 0 W/m
22.03.2015 05:24 4,1 C 3,6 C 8,1 C 78 % 1024,2 hPa 0,0 l/m 39,0 km/h (6 Bft) NO22.5 45 0 min 0 lux 0 W/m
22.03.2015 05:29 4,0 C 3,5 C 8,1 C 78 % 1024,2 hPa 0,0 l/m 27,9 km/h (5 Bft) NO22.5 35 0 min 0 lux 0 W/m
22.03.2015 05:33 4,0 C 3,5 C 8,1 C 78 % 1024,2 hPa 0,0 l/m 29,1 km/h (5 Bft) NO45 35 0 min 0 lux 0 W/m
22.03.2015 05:38 3,9 C 3,5 C 8,1 C 78 % 1024,2 hPa 0,0 l/m 29,9 km/h (5 Bft) NO22.5 45 0 min 0 lux 0 W/m
22.03.2015 05:44 3,9 C 3,5 C 8,1 C 79 % 1024,2 hPa 0,0 l/m 34,1 km/h (5 Bft) NO45 40 0 min 0 lux 0 W/m
22.03.2015 05:49 4,0 C 3,5 C 8,1 C 79 % 1024,2 hPa 0,0 l/m 25,0 km/h (4 Bft) NO22.5 50 0 min 0 lux 0 W/m
22.03.2015 05:54 4,0 C 3,5 C 8,1 C 78 % 1024,2 hPa 0,0 l/m 31,7 km/h (5 Bft) NO67.5 50 0 min 0 lux 0 W/m
22.03.2015 05:59 3,9 C 3,5 C 8,0 C 77 % 1024,2 hPa 0,0 l/m 30,0 km/h (5 Bft) NO67.5 55 0 min 0 lux 0 W/m
22.03.2015 06:03 4,0 C 3,4 C 8,0 C 77 % 1024,2 hPa 0,0 l/m 29,1 km/h (5 Bft) O-NO45 70 0 min 0 lux 0 W/m
22.03.2015 06:09 3,9 C 3,4 C 8,0 C 76 % 1024,2 hPa 0,0 l/m 25,5 km/h (4 Bft) O-NO45 70 0 min 0 lux 0 W/m
22.03.2015 06:14 3,9 C 3,3 C 8,0 C 75 % 1024,2 hPa 0,0 l/m 26,3 km/h (4 Bft) O67.5 85 0 min 0 lux 0 W/m
22.03.2015 06:19 3,9 C 3,3 C 8,0 C 75 % 1024,2 hPa 0,0 l/m 23,8 km/h (4 Bft) O-NO45 65 0 min 0 lux 0 W/m
22.03.2015 06:24 3,9 C 3,3 C 8,0 C 75 % 1024,2 hPa 0,0 l/m 19,0 km/h (3 Bft) O-NO22.5 70 0 min 54 lux 0 W/m
22.03.2015 06:29 3,9 C 3,3 C 8,0 C 76 % 1024,2 hPa 0,0 l/m 16,1 km/h (3 Bft) O67.5 85 0 min 99 lux 0 W/m
22.03.2015 06:34 3,9 C 3,3 C 8,0 C 75 % 1024,2 hPa 0,0 l/m 21,6 km/h (4 Bft) O22.5 90 0 min 153 lux 0 W/m
22.03.2015 06:38 3,9 C 3,3 C 8,0 C 75 % 1024,2 hPa 0,0 l/m 18,1 km/h (3 Bft) O-NO22.5 70 0 min 254 lux 2 W/m
22.03.2015 06:44 3,9 C 3,2 C 8,0 C 74 % 1024,2 hPa 0,0 l/m 25,3 km/h (4 Bft) O-NO22.5 75 0 min 367 lux 3 W/m
22.03.2015 06:49 3,9 C 3,3 C 8,0 C 74 % 1024,2 hPa 0,0 l/m 23,3 km/h (4 Bft) O-NO22.5 70 0 min 441 lux 3 W/m
22.03.2015 06:54 3,9 C 3,3 C 8,0 C 74 % 1024,2 hPa 0,0 l/m 23,3 km/h (4 Bft) O-NO22.5 70 0 min 502 lux 3 W/m
22.03.2015 06:59 3,8 C 3,4 C 8,0 C 74 % 1024,2 hPa 0,0 l/m 33,4 km/h (5 Bft) O-NO45 60 0 min 590 lux 4 W/m
22.03.2015 07:03 3,8 C 3,4 C 8,0 C 74 % 1025,2 hPa 0,0 l/m 23,4 km/h (4 Bft) O45 90 0 min 734 lux 5 W/m
22.03.2015 07:09 3,8 C 3,4 C 8,0 C 73 % 1025,2 hPa 0,0 l/m 31,2 km/h (5 Bft) O45 80 0 min 925 lux 6 W/m
22.03.2015 07:14 3,7 C 3,4 C 8,0 C 73 % 1025,2 hPa 0,0 l/m 31,8 km/h (5 Bft) O45 90 0 min 1,30 klux 9 W/m
22.03.2015 07:19 3,7 C 3,5 C 8,0 C 73 % 1025,2 hPa 0,0 l/m 28,0 km/h (5 Bft) O45 90 0 min 1,51 klux 10 W/m
22.03.2015 07:24 3,6 C 3,6 C 8,0 C 72 % 1025,2 hPa 0,0 l/m 29,5 km/h (5 Bft) O67.5 95 0 min 1,93 klux 13 W/m
22.03.2015 07:29 3,7 C 3,7 C 8,0 C 73 % 1025,2 hPa 0,0 l/m 27,1 km/h (5 Bft) O45 90 0 min 2,02 klux 14 W/m
22.03.2015 07:34 3,7 C 3,7 C 8,0 C 73 % 1025,2 hPa 0,0 l/m 21,6 km/h (4 Bft) O22.5 95 0 min 2,32 klux 16 W/m
22.03.2015 07:38 3,7 C 3,9 C 8,0 C 73 % 1025,2 hPa 0,0 l/m 14,3 km/h (3 Bft) O45 90 0 min 2,71 klux 19 W/m
22.03.2015 07:44 3,8 C 4,1 C 8,0 C 73 % 1025,2 hPa 0,0 l/m 17,9 km/h (3 Bft) NO45 55 0 min 2,72 klux 19 W/m
22.03.2015 07:49 3,8 C 4,1 C 7,9 C 74 % 1025,2 hPa 0,0 l/m 24,1 km/h (4 Bft) NO45 40 0 min 2,15 klux 15 W/m
22.03.2015 07:54 3,7 C 3,9 C 8,0 C 74 % 1025,2 hPa 0,0 l/m 30,8 km/h (5 Bft) NO45 50 0 min 2,27 klux 16 W/m
22.03.2015 07:59 3,7 C 3,9 C 7,9 C 75 % 1025,2 hPa 0,0 l/m 32,3 km/h (5 Bft) NO22.5 40 0 min 3,13 klux 21 W/m
22.03.2015 08:03 3,7 C 3,9 C 8,0 C 74 % 1025,2 hPa 0,0 l/m 28,9 km/h (5 Bft) NO45 35 0 min 3,02 klux 21 W/m
22.03.2015 08:09 3,6 C 3,9 C 8,0 C 75 % 1025,2 hPa 0,0 l/m 24,9 km/h (4 Bft) N-NO67.5 25 0 min 2,48 klux 17 W/m
22.03.2015 08:14 3,6 C 3,8 C 8,0 C 75 % 1025,2 hPa 0,0 l/m 22,8 km/h (4 Bft) NO45 45 0 min 2,48 klux 17 W/m
22.03.2015 08:19 3,6 C 3,9 C 7,9 C 75 % 1026,2 hPa 0,0 l/m 21,9 km/h (4 Bft) NO67.5 40 0 min 3,25 klux 22 W/m
22.03.2015 08:24 3,5 C 4,0 C 7,9 C 75 % 1026,2 hPa 0,0 l/m 25,8 km/h (4 Bft) NO45 35 0 min 3,25 klux 22 W/m
22.03.2015 08:29 3,5 C 4,2 C 7,9 C 75 % 1026,2 hPa 0,0 l/m 21,0 km/h (4 Bft) O45 85 0 min 4,55 klux 31 W/m
22.03.2015 08:34 3,5 C 4,6 C 7,9 C 74 % 1026,2 hPa 0,0 l/m 22,0 km/h (4 Bft) NO45 45 0 min 6,20 klux 42 W/m
22.03.2015 08:38 3,5 C 4,7 C 7,9 C 74 % 1026,2 hPa 0,0 l/m 26,6 km/h (4 Bft) O67.5 95 0 min 6,20 klux 42 W/m
22.03.2015 08:44 3,5 C 5,1 C 7,8 C 73 % 1026,2 hPa 0,0 l/m 26,6 km/h (4 Bft) O67.5 95 0 min 7,18 klux 49 W/m
22.03.2015 08:49 3,5 C 5,2 C 7,8 C 73 % 1026,2 hPa 0,0 l/m 28,1 km/h (5 Bft) O67.5 85 0 min 7,43 klux 51 W/m
22.03.2015 08:54 3,4 C 5,3 C 7,8 C 72 % 1026,2 hPa 0,0 l/m 20,7 km/h (4 Bft) O67.5 90 0 min 7,95 klux 54 W/m
22.03.2015 08:59 3,5 C 5,6 C 7,7 C 73 % 1026,2 hPa 0,0 l/m 22,6 km/h (4 Bft) O45 100 0 min 8,30 klux 57 W/m
22.03.2015 09:03 3,5 C 5,6 C 7,6 C 72 % 1026,2 hPa 0,0 l/m 28,7 km/h (5 Bft) O67.5 85 0 min 7,22 klux 49 W/m
22.03.2015 09:08 3,4 C 5,4 C 7,6 C 72 % 1026,2 hPa 0,0 l/m 30,1 km/h (5 Bft) O67.5 90 0 min 8,09 klux 55 W/m
22.03.2015 09:14 3,4 C 5,4 C 7,4 C 72 % 1026,2 hPa 0,0 l/m 27,4 km/h (5 Bft) O-NO22.5 75 0 min 8,11 klux 55 W/m
22.03.2015 09:19 3,3 C 5,4 C 7,4 C 72 % 1026,2 hPa 0,0 l/m 21,1 km/h (4 Bft) O45 80 0 min 8,43 klux 58 W/m
22.03.2015 09:24 3,3 C 5,4 C 7,3 C 72 % 1026,2 hPa 0,0 l/m 21,6 km/h (4 Bft) O67.5 95 0 min 8,51 klux 58 W/m
22.03.2015 09:29 3,3 C 5,6 C 7,2 C 72 % 1026,2 hPa 0,0 l/m 15,6 km/h (3 Bft) O22.5 80 0 min 9,7 klux 67 W/m
22.03.2015 09:34 3,3 C 5,9 C 7,2 C 72 % 1026,2 hPa 0,0 l/m 19,7 km/h (3 Bft) O45 95 0 min 9,4 klux 64 W/m
22.03.2015 09:38 3,3 C 6,2 C 7,2 C 72 % 1026,2 hPa 0,0 l/m 17,8 km/h (3 Bft) O-SO67.5 105 0 min 10,5 klux 72 W/m
22.03.2015 09:44 3,3 C 6,3 C 7,2 C 72 % 1026,2 hPa 0,0 l/m 19,3 km/h (3 Bft) O45 80 0 min 10,0 klux 68 W/m
22.03.2015 09:49 3,3 C 6,4 C 7,2 C 72 % 1026,2 hPa 0,0 l/m 21,3 km/h (4 Bft) O-NO67.5 75 0 min 9,2 klux 63 W/m
22.03.2015 09:54 3,2 C 6,0 C 7,2 C 72 % 1026,2 hPa 0,0 l/m 23,0 km/h (4 Bft) O45 85 0 min 8,88 klux 61 W/m
22.03.2015 09:59 3,2 C 5,9 C 7,2 C 72 % 1026,2 hPa 0,0 l/m 24,0 km/h (4 Bft) O67.5 95 0 min 9,1 klux 63 W/m
22.03.2015 10:03 3,3 C 5,8 C 7,2 C 72 % 1026,2 hPa 0,0 l/m 18,7 km/h (3 Bft) O45 80 0 min 8,90 klux 61 W/m
22.03.2015 10:09 3,2 C 5,7 C 7,2 C 72 % 1026,2 hPa 0,0 l/m 25,5 km/h (4 Bft) O-NO45 75 0 min 9,6 klux 66 W/m
22.03.2015 10:14 3,2 C 5,9 C 7,2 C 72 % 1026,2 hPa 0,0 l/m 21,8 km/h (4 Bft) O-NO45 75 0 min 10,6 klux 73 W/m
22.03.2015 10:19 3,3 C 6,4 C 7,2 C 72 % 1026,2 hPa 0,0 l/m 20,3 km/h (4 Bft) O-NO22.5 75 0 min 11,4 klux 78 W/m
22.03.2015 10:24 3,4 C 6,7 C 7,2 C 71 % 1026,2 hPa 0,0 l/m 28,3 km/h (5 Bft) O-NO45 65 0 min 11,3 klux 77 W/m
22.03.2015 10:29 3,4 C 6,9 C 7,2 C 71 % 1026,2 hPa 0,0 l/m 23,5 km/h (4 Bft) O45 80 0 min 11,1 klux 76 W/m
22.03.2015 10:34 3,4 C 6,9 C 7,2 C 71 % 1026,2 hPa 0,0 l/m 15,6 km/h (3 Bft) O-NO67.5 75 0 min 12,2 klux 83 W/m
22.03.2015 10:38 3,5 C 7,4 C 7,2 C 72 % 1026,2 hPa 0,0 l/m 17,3 km/h (3 Bft) O45 80 0 min 13,3 klux 91 W/m
22.03.2015 10:44 3,5 C 7,9 C 7,2 C 72 % 1026,2 hPa 0,0 l/m 20,0 km/h (4 Bft) O67.5 95 0 min 16,0 klux 109 W/m
22.03.2015 10:49 3,5 C 8,6 C 7,2 C 71 % 1026,2 hPa 0,0 l/m 22,4 km/h (4 Bft) O67.5 90 0 min 18,6 klux 127 W/m
22.03.2015 10:54 3,8 C 9,2 C 7,2 C 71 % 1026,2 hPa 0,0 l/m 15,8 km/h (3 Bft) O45 80 0 min 20,3 klux 139 W/m
22.03.2015 10:59 3,8 C 9,3 C 7,2 C 70 % 1026,2 hPa 0,0 l/m 20,8 km/h (4 Bft) O45 85 0 min 17,3 klux 118 W/m
22.03.2015 11:03 3,8 C 9,5 C 7,3 C 71 % 1026,2 hPa 0,0 l/m 16,3 km/h (3 Bft) O-SO67.5 120 0 min 17,7 klux 121 W/m
22.03.2015 11:09 3,9 C 9,7 C 7,3 C 71 % 1026,2 hPa 0,0 l/m 13,8 km/h (3 Bft) O67.5 95 0 min 17,9 klux 122 W/m
22.03.2015 11:14 3,9 C 9,9 C 7,3 C 70 % 1026,2 hPa 0,0 l/m 17,8 km/h (3 Bft) O-NO67.5 70 0 min 16,5 klux 113 W/m
22.03.2015 11:19 3,9 C 9,9 C 7,3 C 70 % 1026,2 hPa 0,0 l/m 23,6 km/h (4 Bft) O45 90 0 min 16,0 klux 109 W/m
22.03.2015 11:24 3,9 C 9,7 C 7,3 C 70 % 1026,2 hPa 0,0 l/m 15,3 km/h (3 Bft) NO45 40 0 min 16,7 klux 114 W/m
22.03.2015 11:29 4,1 C 10,1 C 7,3 C 70 % 1026,2 hPa 0,0 l/m 22,4 km/h (4 Bft) NO67.5 55 0 min 19,2 klux 131 W/m
22.03.2015 11:33 4,1 C 10,6 C 7,3 C 69 % 1026,2 hPa 0,0 l/m 22,6 km/h (4 Bft) O67.5 90 0 min 25,6 klux 175 W/m
22.03.2015 11:38 4,1 C 11,5 C 7,3 C 68 % 1026,2 hPa 0,0 l/m 22,8 km/h (4 Bft) O-NO22.5 70 0 min 25,6 klux 175 W/m
22.03.2015 11:44 4,3 C 12,6 C 7,3 C 68 % 1026,2 hPa 0,0 l/m 15,4 km/h (3 Bft) O-NO67.5 60 0 min 23,6 klux 161 W/m
22.03.2015 11:49 4,5 C 12,1 C 7,3 C 67 % 1026,2 hPa 0,0 l/m 28,6 km/h (5 Bft) NO45 55 0 min 24,3 klux 166 W/m
22.03.2015 11:54 4,5 C 12,6 C 7,3 C 67 % 1026,2 hPa 0,0 l/m 24,2 km/h (4 Bft) NO22.5 45 0 min 31,4 klux 215 W/m
22.03.2015 11:59 4,6 C 12,8 C 7,3 C 67 % 1026,2 hPa 0,0 l/m 28,1 km/h (5 Bft) O-NO22.5 65 0 min 29,1 klux 199 W/m
22.03.2015 12:04 4,7 C 13,7 C 7,3 C 67 % 1026,2 hPa 0,0 l/m 22,0 km/h (4 Bft) O-NO45 75 0 min 25,9 klux 177 W/m
22.03.2015 12:09 4,7 C 12,7 C 7,3 C 67 % 1026,2 hPa 0,0 l/m 17,2 km/h (3 Bft) O22.5 85 0 min 17,0 klux 116 W/m
22.03.2015 12:14 4,5 C 12,5 C 7,3 C 68 % 1026,2 hPa 0,0 l/m 8,5 km/h (2 Bft) O67.5 95 0 min 18,0 klux 123 W/m
22.03.2015 12:19 4,5 C 11,8 C 7,3 C 68 % 1026,2 hPa 0,0 l/m 17,0 km/h (3 Bft) O45 90 0 min 18,0 klux 123 W/m
22.03.2015 12:24 4,5 C 11,5 C 7,3 C 68 % 1026,2 hPa 0,0 l/m 16,0 km/h (3 Bft) O-NO45 70 0 min 18,0 klux 123 W/m
22.03.2015 12:28 4,6 C 11,5 C 7,4 C 67 % 1026,2 hPa 0,0 l/m 10,6 km/h (2 Bft) O67.5 95 0 min 20,9 klux 143 W/m
22.03.2015 12:33 4,5 C 11,5 C 7,4 C 67 % 1026,2 hPa 0,0 l/m 13,8 km/h (3 Bft) O22.5 80 0 min 18,3 klux 125 W/m
22.03.2015 12:39 4,5 C 11,4 C 7,4 C 67 % 1026,2 hPa 0,0 l/m 8,2 km/h (2 Bft) O22.5 80 0 min 15,5 klux 106 W/m
22.03.2015 12:44 4,6 C 11,0 C 7,4 C 68 % 1026,2 hPa 0,0 l/m 14,3 km/h (3 Bft) O45 95 0 min 21,1 klux 144 W/m
22.03.2015 12:49 4,8 C 11,7 C 7,4 C 67 % 1026,2 hPa 0,0 l/m 15,5 km/h (3 Bft) O45 85 0 min 23,7 klux 162 W/m
22.03.2015 12:54 4,9 C 12,4 C 7,5 C 67 % 1026,2 hPa 0,0 l/m 13,4 km/h (3 Bft) O45 80 0 min 23,7 klux 162 W/m
22.03.2015 12:59 5,2 C 13,7 C 7,5 C 67 % 1026,2 hPa 0,0 l/m 18,4 km/h (3 Bft) O-NO67.5 70 0 min 27,3 klux 187 W/m
22.03.2015 13:04 5,6 C 14,6 C 7,5 C 66 % 1025,1 hPa 0,0 l/m 20,3 km/h (4 Bft) N-NO45 30 5 min 50,6 klux 346 W/m
22.03.2015 13:09 5,5 C 14,5 C 7,5 C 65 % 1025,1 hPa 0,0 l/m 16,4 km/h (3 Bft) N-NO45 20 0 min 37,7 klux 258 W/m
22.03.2015 13:14 5,4 C 13,9 C 7,5 C 65 % 1025,1 hPa 0,0 l/m 24,9 km/h (4 Bft) N-NO22.5 25 0 min 25,9 klux 177 W/m
22.03.2015 13:19 5,3 C 12,9 C 7,5 C 65 % 1025,1 hPa 0,0 l/m 23,1 km/h (4 Bft) N-NO22.5 30 5 min 48,7 klux 333 W/m
22.03.2015 13:24 5,5 C 13,5 C 7,5 C 66 % 1025,1 hPa 0,0 l/m 23,1 km/h (4 Bft) N-NO22.5 25 0 min 32,6 klux 223 W/m
22.03.2015 13:28 5,5 C 13,8 C 7,5 C 66 % 1025,1 hPa 0,0 l/m 22,5 km/h (4 Bft) NO22.5 35 0 min 35,8 klux 245 W/m
22.03.2015 13:34 5,6 C 15,5 C 7,5 C 65 % 1025,1 hPa 0,0 l/m 19,5 km/h (3 Bft) N-NO45 20 6 min 83,7 klux 573 W/m
22.03.2015 13:39 6,0 C 20,2 C 7,5 C 66 % 1025,1 hPa 0,0 l/m 22,0 km/h (4 Bft) N-NO22.5 15 5 min 76,2 klux 521 W/m
22.03.2015 13:44 6,6 C 22,5 C 7,5 C 62 % 1025,1 hPa 0,0 l/m 26,5 km/h (4 Bft) N-NO22.5 25 5 min 65,9 klux 451 W/m
22.03.2015 13:49 6,7 C 22,8 C 7,6 C 61 % 1024,1 hPa 0,0 l/m 26,6 km/h (4 Bft) NO22.5 35 5 min 59,6 klux 408 W/m
22.03.2015 13:54 6,3 C 20,5 C 7,6 C 63 % 1024,1 hPa 0,0 l/m 26,4 km/h (4 Bft) NO45 35 5 min 47,4 klux 324 W/m
22.03.2015 13:59 6,7 C 21,8 C 7,5 C 62 % 1024,1 hPa 0,0 l/m 25,8 km/h (4 Bft) NO45 40 5 min 63,9 klux 437 W/m
22.03.2015 14:04 6,7 C 23,5 C 7,5 C 62 % 1024,1 hPa 0,0 l/m 19,8 km/h (3 Bft) NO45 45 5 min 62,1 klux 425 W/m
22.03.2015 14:09 7,6 C 25,6 C 7,6 C 60 % 1024,1 hPa 0,0 l/m 17,6 km/h (3 Bft) NO45 40 5 min 64,2 klux 439 W/m
22.03.2015 14:14 7,6 C 24,6 C 7,6 C 60 % 1024,1 hPa 0,0 l/m 26,7 km/h (4 Bft) N-NO45 25 5 min 63,8 klux 436 W/m
22.03.2015 14:19 7,6 C 28,0 C 7,6 C 60 % 1024,1 hPa 0,0 l/m 21,4 km/h (4 Bft) NO45 50 5 min 71,8 klux 491 W/m
22.03.2015 14:23 7,6 C 28,2 C 7,6 C 61 % 1024,1 hPa 0,0 l/m 13,3 km/h (3 Bft) NO45 55 4 min 61,0 klux 417 W/m
22.03.2015 14:28 7,8 C 27,4 C 7,6 C 59 % 1024,1 hPa 0,0 l/m 15,5 km/h (3 Bft) O-SO45 105 0 min 39,2 klux 268 W/m
22.03.2015 14:34 7,7 C 26,8 C 7,7 C 58 % 1024,1 hPa 0,0 l/m 16,2 km/h (3 Bft) O22.5 85 6 min 68,1 klux 466 W/m
22.03.2015 14:39 7,7 C 26,0 C 7,7 C 59 % 1024,1 hPa 0,0 l/m 16,7 km/h (3 Bft) N-NO45 20 5 min 66,8 klux 457 W/m
22.03.2015 14:44 7,6 C 26,0 C 7,6 C 59 % 1024,1 hPa 0,0 l/m 20,3 km/h (4 Bft) NO45 50 5 min 58,3 klux 399 W/m
22.03.2015 14:49 7,9 C 22,4 C 7,7 C 58 % 1024,1 hPa 0,0 l/m 21,5 km/h (4 Bft) NO45 35 0 min 33,8 klux 231 W/m
22.03.2015 14:54 7,7 C 22,1 C 7,7 C 59 % 1024,1 hPa 0,0 l/m 18,7 km/h (3 Bft) N-NO45 25 5 min 58,6 klux 401 W/m
22.03.2015 14:58 7,8 C 21,1 C 7,8 C 58 % 1024,1 hPa 0,0 l/m 21,5 km/h (4 Bft) N-NO45 25 4 min 47,3 klux 324 W/m
22.03.2015 15:04 7,6 C 18,5 C 7,8 C 59 % 1024,1 hPa 0,0 l/m 18,3 km/h (3 Bft) NO45 40 0 min 24,1 klux 165 W/m
22.03.2015 15:09 7,2 C 14,9 C 7,8 C 59 % 1024,1 hPa 0,0 l/m 17,9 km/h (3 Bft) N-NO22.5 30 0 min 27,3 klux 187 W/m
22.03.2015 15:14 7,2 C 15,6 C 7,7 C 60 % 1024,1 hPa 0,0 l/m 21,0 km/h (4 Bft) NO22.5 40 5 min 51,0 klux 349 W/m
22.03.2015 15:19 7,2 C 18,1 C 7,8 C 60 % 1023,1 hPa 0,0 l/m 20,2 km/h (4 Bft) N-NO45 30 5 min 49,4 klux 338 W/m
22.03.2015 15:23 7,3 C 17,8 C 7,7 C 60 % 1023,1 hPa 0,0 l/m 23,5 km/h (4 Bft) N-NO67.5 20 4 min 47,7 klux 326 W/m
22.03.2015 15:29 7,3 C 17,3 C 7,8 C 59 % 1023,1 hPa 0,0 l/m 21,6 km/h (4 Bft) NO22.5 35 6 min 48,1 klux 329 W/m
22.03.2015 15:34 7,6 C 17,5 C 7,8 C 60 % 1023,1 hPa 0,0 l/m 19,8 km/h (3 Bft) N-NO45 20 5 min 48,6 klux 332 W/m
22.03.2015 15:39 7,6 C 17,7 C 7,8 C 59 % 1023,1 hPa 0,0 l/m 22,0 km/h (4 Bft) NO45 35 5 min 44,9 klux 307 W/m
22.03.2015 15:44 7,7 C 19,8 C 7,8 C 59 % 1023,1 hPa 0,0 l/m 19,0 km/h (3 Bft) NO22.5 35 5 min 46,5 klux 318 W/m
22.03.2015 15:49 7,9 C 20,3 C 7,8 C 58 % 1023,1 hPa 0,0 l/m 19,3 km/h (3 Bft) NO22.5 50 5 min 43,5 klux 298 W/m
22.03.2015 15:53 7,6 C 19,7 C 7,8 C 58 % 1023,1 hPa 0,0 l/m 20,1 km/h (4 Bft) NO45 35 4 min 41,4 klux 283 W/m
22.03.2015 15:58 7,4 C 17,5 C 7,8 C 59 % 1023,1 hPa 0,0 l/m 24,0 km/h (4 Bft) N-NO67.5 15 5 min 40,5 klux 277 W/m
22.03.2015 16:04 7,4 C 17,7 C 7,9 C 60 % 1023,1 hPa 0,0 l/m 20,0 km/h (4 Bft) N-NO45 20 6 min 39,0 klux 267 W/m
22.03.2015 16:09 7,5 C 17,5 C 7,9 C 60 % 1023,1 hPa 0,0 l/m 21,8 km/h (4 Bft) N-NO45 30 5 min 37,7 klux 258 W/m
22.03.2015 16:14 7,5 C 15,8 C 7,9 C 60 % 1023,1 hPa 0,0 l/m 24,0 km/h (4 Bft) NO67.5 35 5 min 37,5 klux 257 W/m
22.03.2015 16:18 7,4 C 14,8 C 8,0 C 60 % 1023,1 hPa 0,0 l/m 21,3 km/h (4 Bft) N-NO45 20 4 min 34,9 klux 239 W/m
22.03.2015 16:23 7,5 C 15,0 C 8,0 C 59 % 1023,1 hPa 0,0 l/m 20,0 km/h (4 Bft) N-NO22.5 30 5 min 35,3 klux 241 W/m
22.03.2015 16:29 7,5 C 14,8 C 8,0 C 59 % 1023,1 hPa 0,0 l/m 21,7 km/h (4 Bft) NO45 35 6 min 34,0 klux 233 W/m
22.03.2015 16:34 7,6 C 14,5 C 8,0 C 60 % 1023,1 hPa 0,0 l/m 23,7 km/h (4 Bft) NO45 40 5 min 32,6 klux 223 W/m
22.03.2015 16:39 7,5 C 14,9 C 8,0 C 60 % 1023,1 hPa 0,0 l/m 21,9 km/h (4 Bft) NO22.5 45 5 min 31,8 klux 218 W/m
22.03.2015 16:44 7,6 C 15,6 C 8,0 C 60 % 1023,1 hPa 0,0 l/m 18,5 km/h (3 Bft) NO45 50 5 min 30,7 klux 210 W/m
22.03.2015 16:49 7,6 C 15,6 C 8,0 C 60 % 1023,1 hPa 0,0 l/m 15,1 km/h (3 Bft) NO22.5 50 5 min 29,4 klux 201 W/m
22.03.2015 16:53 7,6 C 14,2 C 8,0 C 60 % 1022,1 hPa 0,0 l/m 20,1 km/h (4 Bft) NO45 40 4 min 28,5 klux 195 W/m
22.03.2015 16:59 7,6 C 13,7 C 8,0 C 60 % 1022,1 hPa 0,0 l/m 21,5 km/h (4 Bft) N-NO22.5 30 6 min 27,3 klux 187 W/m
22.03.2015 17:04 7,5 C 13,8 C 8,1 C 60 % 1022,1 hPa 0,0 l/m 23,6 km/h (4 Bft) NO45 45 5 min 26,5 klux 181 W/m
22.03.2015 17:09 7,5 C 14,0 C 8,1 C 60 % 1022,1 hPa 0,0 l/m 16,8 km/h (3 Bft) O22.5 80 5 min 26,5 klux 181 W/m
22.03.2015 17:14 7,5 C 13,9 C 8,1 C 60 % 1022,1 hPa 0,0 l/m 19,6 km/h (3 Bft) NO45 45 5 min 24,7 klux 169 W/m
22.03.2015 17:18 7,6 C 13,8 C 8,0 C 60 % 1022,1 hPa 0,0 l/m 16,9 km/h (3 Bft) NO22.5 35 4 min 23,2 klux 159 W/m
22.03.2015 17:24 7,5 C 13,1 C 8,1 C 60 % 1022,1 hPa 0,0 l/m 18,1 km/h (3 Bft) O-NO45 65 6 min 23,2 klux 159 W/m
22.03.2015 17:29 7,5 C 13,1 C 8,1 C 60 % 1022,1 hPa 0,0 l/m 10,4 km/h (2 Bft) NO67.5 40 5 min 20,4 klux 140 W/m
22.03.2015 17:34 7,6 C 12,4 C 8,0 C 60 % 1022,1 hPa 0,0 l/m 15,5 km/h (3 Bft) NO22.5 55 5 min 20,4 klux 140 W/m
22.03.2015 17:39 7,8 C 11,5 C 8,1 C 60 % 1022,1 hPa 0,0 l/m 18,0 km/h (3 Bft) NO22.5 35 5 min 20,4 klux 140 W/m
22.03.2015 17:44 7,8 C 10,3 C 8,1 C 60 % 1022,1 hPa 0,0 l/m 16,2 km/h (3 Bft) O-NO22.5 75 5 min 16,8 klux 115 W/m
22.03.2015 17:49 7,7 C 9,7 C 8,1 C 60 % 1022,1 hPa 0,0 l/m 17,0 km/h (3 Bft) NO22.5 45 5 min 15,4 klux 105 W/m
22.03.2015 17:53 7,8 C 8,3 C 8,1 C 60 % 1022,1 hPa 0,0 l/m 18,6 km/h (3 Bft) NO22.5 45 4 min 13,7 klux 94 W/m
22.03.2015 17:59 7,8 C 6,8 C 8,1 C 60 % 1022,1 hPa 0,0 l/m 18,4 km/h (3 Bft) NO22.5 35 6 min 12,8 klux 88 W/m
22.03.2015 18:04 7,8 C 6,4 C 8,1 C 60 % 1022,1 hPa 0,0 l/m 15,6 km/h (3 Bft) NO22.5 35 0 min 4,35 klux 30 W/m
22.03.2015 18:09 7,8 C 5,6 C 8,1 C 60 % 1022,1 hPa 0,0 l/m 18,8 km/h (3 Bft) NO22.5 50 0 min 4,08 klux 28 W/m
22.03.2015 18:13 7,8 C 5,1 C 8,1 C 60 % 1022,1 hPa 0,0 l/m 20,0 km/h (4 Bft) NO22.5 45 0 min 3,43 klux 23 W/m
22.03.2015 18:19 7,6 C 4,8 C 8,1 C 60 % 1022,1 hPa 0,0 l/m 11,0 km/h (2 Bft) NO22.5 45 0 min 3,43 klux 23 W/m
22.03.2015 18:24 7,6 C 4,4 C 8,1 C 61 % 1022,1 hPa 0,0 l/m 14,0 km/h (3 Bft) NO22.5 45 0 min 2,96 klux 20 W/m
22.03.2015 18:29 7,4 C 4,1 C 8,1 C 60 % 1022,1 hPa 0,0 l/m 14,8 km/h (3 Bft) O45 85 0 min 2,47 klux 17 W/m
22.03.2015 18:34 7,2 C 3,7 C 8,1 C 61 % 1022,1 hPa 0,0 l/m 10,7 km/h (2 Bft) NO22.5 45 0 min 2,00 klux 14 W/m
22.03.2015 18:39 7,2 C 3,6 C 8,1 C 62 % 1022,1 hPa 0,0 l/m 18,4 km/h (3 Bft) NO22.5 35 0 min 1,51 klux 10 W/m
22.03.2015 18:43 7,0 C 3,3 C 8,1 C 62 % 1022,1 hPa 0,0 l/m 12,6 km/h (3 Bft) NO22.5 40 0 min 1,00 klux 7 W/m
22.03.2015 18:49 6,6 C 3,0 C 8,1 C 63 % 1022,1 hPa 0,0 l/m 10,5 km/h (2 Bft) NO22.5 45 0 min 587 lux 0 W/m
22.03.2015 18:54 6,5 C 2,7 C 8,1 C 63 % 1022,1 hPa 0,0 l/m 11,0 km/h (2 Bft) NO22.5 40 0 min 344 lux 0 W/m
22.03.2015 18:59 6,5 C 2,5 C 8,1 C 63 % 1022,1 hPa 0,0 l/m 11,4 km/h (2 Bft) NO45 55 0 min 192 lux 0 W/m
22.03.2015 19:03 6,5 C 2,5 C 8,1 C 63 % 1022,1 hPa 0,0 l/m 17,5 km/h (3 Bft) NO45 55 0 min 118 lux 0 W/m
22.03.2015 19:08 6,1 C 2,3 C 8,1 C 64 % 1022,1 hPa 0,0 l/m 18,2 km/h (3 Bft) NO22.5 50 0 min 44 lux 0 W/m
22.03.2015 19:14 6,1 C 2,2 C 8,1 C 64 % 1022,1 hPa 0,0 l/m 10,0 km/h (2 Bft) NO22.5 40 0 min 16 lux 0 W/m
22.03.2015 19:19 6,0 C 1,9 C 8,1 C 65 % 1022,1 hPa 0,0 l/m 8,1 km/h (2 Bft) O-NO22.5 60 0 min 9 lux 0 W/m
22.03.2015 19:24 6,0 C 1,8 C 8,1 C 65 % 1022,1 hPa 0,0 l/m 0,8 km/h (0 Bft) NO 55 0 min 4 lux 0 W/m
22.03.2015 19:29 5,8 C 1,8 C 8,1 C 66 % 1022,1 hPa 0,0 l/m 8,5 km/h (2 Bft) O-NO 60 0 min 0 lux 0 W/m
22.03.2015 19:33 5,7 C 1,6 C 8,1 C 66 % 1022,1 hPa 0,0 l/m 10,8 km/h (2 Bft) NO45 55 0 min 0 lux 0 W/m
22.03.2015 19:38 5,7 C 1,6 C 8,1 C 66 % 1022,1 hPa 0,0 l/m 15,0 km/h (3 Bft) O-NO45 60 0 min 0 lux 0 W/m
22.03.2015 19:44 5,7 C 1,8 C 8,1 C 66 % 1022,1 hPa 0,0 l/m 20,3 km/h (4 Bft) O-NO67.5 60 0 min 0 lux 0 W/m
22.03.2015 19:49 5,7 C 1,9 C 8,1 C 66 % 1022,1 hPa 0,0 l/m 20,1 km/h (4 Bft) O-NO45 65 0 min 0 lux 0 W/m
22.03.2015 19:54 5,7 C 1,7 C 8,1 C 66 % 1022,1 hPa 0,0 l/m 13,4 km/h (3 Bft) O-NO45 60 0 min 0 lux 0 W/m
22.03.2015 19:59 5,6 C 1,7 C 8,1 C 66 % 1022,1 hPa 0,0 l/m 10,1 km/h (2 Bft) NO45 45 0 min 0 lux 0 W/m
22.03.2015 20:04 5,5 C 1,8 C 8,1 C 67 % 1022,1 hPa 0,0 l/m 18,2 km/h (3 Bft) O-NO45 70 0 min 0 lux 0 W/m
22.03.2015 20:09 5,6 C 2,0 C 8,1 C 67 % 1022,1 hPa 0,0 l/m 14,0 km/h (3 Bft) O45 80 0 min 0 lux 0 W/m
22.03.2015 20:14 5,4 C 1,8 C 8,1 C 67 % 1022,1 hPa 0,0 l/m 11,1 km/h (2 Bft) NO22.5 35 0 min 0 lux 0 W/m
22.03.2015 20:19 5,4 C 1,8 C 8,1 C 67 % 1022,1 hPa 0,0 l/m 16,6 km/h (3 Bft) O45 80 0 min 0 lux 0 W/m
22.03.2015 20:23 5,4 C 1,8 C 8,1 C 67 % 1022,1 hPa 0,0 l/m 19,6 km/h (3 Bft) O-NO67.5 75 0 min 0 lux 0 W/m
22.03.2015 20:28 5,3 C 1,7 C 8,1 C 67 % 1022,1 hPa 0,0 l/m 19,7 km/h (3 Bft) O-NO45 65 0 min 0 lux 0 W/m
22.03.2015 20:34 5,2 C 1,7 C 8,1 C 67 % 1022,1 hPa 0,0 l/m 17,1 km/h (3 Bft) O-NO45 65 0 min 0 lux 0 W/m
22.03.2015 20:39 5,2 C 1,4 C 8,1 C 67 % 1022,1 hPa 0,0 l/m 4,2 km/h (1 Bft) O22.5 80 0 min 0 lux 0 W/m
22.03.2015 20:44 4,9 C 1,1 C 8,1 C 67 % 1022,1 hPa 0,0 l/m 16,2 km/h (3 Bft) O22.5 80 0 min 0 lux 0 W/m
22.03.2015 20:49 4,7 C 0,9 C 8,1 C 68 % 1022,1 hPa 0,0 l/m 16,1 km/h (3 Bft) O-NO22.5 75 0 min 0 lux 0 W/m
22.03.2015 20:54 4,7 C 0,7 C 8,0 C 68 % 1022,1 hPa 0,0 l/m 9,6 km/h (2 Bft) O22.5 80 0 min 0 lux 0 W/m
22.03.2015 20:58 4,5 C 0,5 C 8,1 C 68 % 1022,1 hPa 0,0 l/m 11,6 km/h (2 Bft) O-NO22.5 60 0 min 0 lux 0 W/m
22.03.2015 21:04 4,4 C 0,5 C 8,0 C 69 % 1022,1 hPa 0,0 l/m 12,1 km/h (2 Bft) O22.5 85 0 min 0 lux 0 W/m
22.03.2015 21:09 4,3 C 0,4 C 8,1 C 69 % 1022,1 hPa 0,0 l/m 9,2 km/h (2 Bft) O22.5 85 0 min 0 lux 0 W/m
22.03.2015 21:14 4,3 C 0,3 C 8,0 C 69 % 1022,1 hPa 0,0 l/m 9,8 km/h (2 Bft) O22.5 90 0 min 0 lux 0 W/m
22.03.2015 21:18 4,1 C 0,0 C 8,1 C 70 % 1022,2 hPa 0,0 l/m 5,1 km/h (1 Bft) O 95 0 min 0 lux 0 W/m
22.03.2015 21:24 4,1 C 0,0 C 8,0 C 70 % 1022,2 hPa 0,0 l/m 1,1 km/h (1 Bft) O 95 0 min 0 lux 0 W/m
22.03.2015 21:29 4,0 C -0,3 C 8,1 C 70 % 1022,2 hPa 0,0 l/m 0,5 km/h (0 Bft) O 95 0 min 0 lux 0 W/m
22.03.2015 21:34 3,9 C -0,7 C 8,0 C 70 % 1022,2 hPa 0,0 l/m 0,0 km/h (0 Bft) O 95 0 min 0 lux 0 W/m
22.03.2015 21:39 3,9 C -0,7 C 8,0 C 70 % 1022,2 hPa 0,0 l/m 0,0 km/h (0 Bft) O 95 0 min 0 lux 0 W/m
22.03.2015 21:44 3,5 C -1,0 C 8,0 C 71 % 1022,2 hPa 0,0 l/m 0,9 km/h (0 Bft) O 95 0 min 0 lux 0 W/m
22.03.2015 21:48 3,5 C -1,0 C 8,0 C 72 % 1022,2 hPa 0,0 l/m 0,8 km/h (0 Bft) O 95 0 min 0 lux 0 W/m
22.03.2015 21:53 3,3 C -1,2 C 8,0 C 72 % 1022,2 hPa 0,0 l/m 0,3 km/h (0 Bft) O 95 0 min 0 lux 0 W/m
22.03.2015 21:59 3,2 C -1,3 C 8,0 C 72 % 1022,2 hPa 0,0 l/m 0,9 km/h (0 Bft) O 95 0 min 0 lux 0 W/m
22.03.2015 22:04 3,1 C -1,4 C 8,0 C 73 % 1022,2 hPa 0,0 l/m 0,9 km/h (0 Bft) O 95 0 min 0 lux 0 W/m
22.03.2015 22:09 3,1 C -1,4 C 8,0 C 74 % 1022,2 hPa 0,0 l/m 5,0 km/h (1 Bft) O 95 0 min 0 lux 0 W/m
22.03.2015 22:13 3,1 C -1,5 C 8,0 C 74 % 1022,2 hPa 0,0 l/m 1,0 km/h (0 Bft) O 95 0 min 0 lux 0 W/m
22.03.2015 22:19 3,0 C -1,5 C 8,0 C 74 % 1022,2 hPa 0,0 l/m 5,6 km/h (2 Bft) O 95 0 min 0 lux 0 W/m
22.03.2015 22:24 2,9 C -1,3 C 8,0 C 74 % 1022,2 hPa 0,0 l/m 7,3 km/h (2 Bft) O 95 0 min 0 lux 0 W/m
22.03.2015 22:29 2,8 C -1,4 C 8,0 C 74 % 1022,2 hPa 0,0 l/m 7,3 km/h (2 Bft) O 95 0 min 0 lux 0 W/m
22.03.2015 22:34 2,7 C -1,7 C 8,0 C 74 % 1022,2 hPa 0,0 l/m 4,2 km/h (1 Bft) O 95 0 min 0 lux 0 W/m
22.03.2015 22:39 2,7 C -1,7 C 8,0 C 75 % 1022,2 hPa 0,0 l/m 1,2 km/h (1 Bft) O 95 0 min 0 lux 0 W/m
22.03.2015 22:44 2,7 C -1,7 C 8,0 C 75 % 1022,2 hPa 0,0 l/m 8,4 km/h (2 Bft) O 100 0 min 0 lux 0 W/m
22.03.2015 22:48 2,7 C -1,7 C 8,0 C 75 % 1022,2 hPa 0,0 l/m 6,5 km/h (2 Bft) SO 130 0 min 0 lux 0 W/m
22.03.2015 22:54 2,7 C -1,8 C 8,0 C 76 % 1022,2 hPa 0,0 l/m 8,2 km/h (2 Bft) O-SO22.5 120 0 min 0 lux 0 W/m
22.03.2015 22:59 2,6 C -1,8 C 8,0 C 75 % 1022,2 hPa 0,0 l/m 6,7 km/h (2 Bft) O-SO22.5 105 0 min 0 lux 0 W/m
22.03.2015 23:04 2,6 C -1,8 C 8,0 C 76 % 1022,2 hPa 0,0 l/m 2,6 km/h (1 Bft) SO45 125 0 min 0 lux 0 W/m
22.03.2015 23:08 2,5 C -1,9 C 8,0 C 76 % 1022,2 hPa 0,0 l/m 1,0 km/h (0 Bft) SO 125 0 min 0 lux 0 W/m
22.03.2015 23:13 2,5 C -1,8 C 8,0 C 76 % 1022,2 hPa 0,0 l/m 0,7 km/h (0 Bft) SO 130 0 min 0 lux 0 W/m
22.03.2015 23:19 2,5 C -1,8 C 8,0 C 76 % 1022,2 hPa 0,0 l/m 0,4 km/h (0 Bft) SO 130 0 min 0 lux 0 W/m
22.03.2015 23:24 2,5 C -2,0 C 8,0 C 76 % 1022,2 hPa 0,0 l/m 0,4 km/h (0 Bft) SO 130 0 min 0 lux 0 W/m
22.03.2015 23:29 2,4 C -1,8 C 8,0 C 76 % 1022,2 hPa 0,0 l/m 4,6 km/h (1 Bft) SO 130 0 min 0 lux 0 W/m
22.03.2015 23:34 2,4 C -1,7 C 8,0 C 77 % 1022,2 hPa 0,0 l/m 9,7 km/h (2 Bft) SO22.5 130 0 min 0 lux 0 W/m
22.03.2015 23:39 2,4 C -1,7 C 8,0 C 76 % 1022,2 hPa 0,0 l/m 8,9 km/h (2 Bft) SO22.5 135 0 min 0 lux 0 W/m
22.03.2015 23:43 2,5 C -1,7 C 8,0 C 76 % 1022,2 hPa 0,0 l/m 8,4 km/h (2 Bft) SO22.5 145 0 min 0 lux 0 W/m
22.03.2015 23:49 2,5 C -1,6 C 8,0 C 76 % 1022,2 hPa 0,0 l/m 8,6 km/h (2 Bft) SO22.5 145 0 min 0 lux 0 W/m
22.03.2015 23:54 2,5 C -1,7 C 8,0 C 76 % 1022,2 hPa 0,0 l/m 10,5 km/h (2 Bft) S-SO22.5 155 0 min 0 lux 0 W/m
22.03.2015 23:59 2,5 C -1,6 C 8,0 C 76 % 1021,2 hPa 0,0 l/m 8,3 km/h (2 Bft) SO22.5 140 0 min 0 lux 0 W/m
_ Min-Zeit 23:29 23:24 09:29 14:34 00:04 - 21:34 - - - - -
Minimum _ 2,4 C -2,0 C 7,2 C 58 % 1021,1 hPa - 0,0 km/h (0 Bft) - - - - -
_ Max-Zeit 14:49 14:23 00:04 00:04 09:54 00:04 03:04 - - 13:34 13:34 13:34
Maximum _ 7,9 C 28,2 C 8,3 C 85 % 1026,2 hPa 0,0 l/m 41,1 km/h
NO (6 Bft)
- - 6 min 83,7 klux 573 W/m
Durchschnitt _ 5,0 C 6,9 C 7,9 C 71 % 1023,6 hPa #0,0 l/m 20,3 km/h (4 Bft) NO - #4:20 h 11,7 klux 158 W/m